User: anonymous   Login
Location: Mentone
(34.5413°N, 85.5351°W)
Time: 12:27:29
(UTC-05:00)
Language:

Tiros 1 despin weight - Orbit

View from above orbital plane
View from above orbital plane
View from above satellite
View from above satellite

Ground track
Ground track

The orbit data is extracted from the following two-line orbital elements,

1 00115U 60002D   15144.50753347  .00000499  00000-0  89152-4 0  9995
2 00115 048.1654 167.8913 0035211 015.8555 344.3452 14.82068041938237
Epoch (UTC): 24 May 2015 12:10:50
Eccentricity: 0.0035211
inclination: 48.1654°
perigee height: 598 km
apogee height: 647 km
right ascension of ascending node: 167.8913°
argument of perigee: 15.8555°
revolutions per day: 14.82068041
mean anomaly at epoch: 344.3452°
orbit number at epoch: 93823

The dashed part of the orbit path shows where the satellite is in the earth's shadow,  

DLR